Orbital Elements at Epoch 2459200.5 (2020-Dec-17.0) TDB
Reference: JPL 15 (heliocentric ecliptic J2000)
Element | Value | Uncertainty (1-sigma) | Units |
e | .1180852390580113 | 4.7421e-08 | |
a | 2.414361161594762 | 1.2896e-08 | au |
q | 2.129260746655467 | 1.1719e-07 | au |
i | 6.696324373166079 | 5.0214e-06 | deg |
node | 147.6135249293675 | 4.1712e-05 | deg |
peri | 190.0537103955368 | 4.7407e-05 | deg |
M | 298.1437831608677 | 2.5814e-05 | deg |
tp | 2459435.941293595083 (2021-Aug-09.44129359) | 9.9262e-05 | TDB |
period | 1370.256217166654 3.75 | 1.0978e-05 3.006e-08 | d yr |
n | .2627245879200532 | 2.1049e-09 | deg/d |
Q | 2.699461576534058 | 1.4419e-08 | au |
|
| | Orbit Determination Parameters
Additional Information
|